[[{"header":{"parameterUnit":"m.s-1","parameterCategory":1,"la1":30.2991,"la2":30.254,"lo1":-89.0895,"lo2":-89.0444,"dy":0.0017,"dx":0.0017,"nx":28,"ny":28,"refTime":"2024-02-13T09:00:00:Z","depth":0,"parameterNumber":2,"parameterNumberName":"U-component_of_WINDS"},"data":[0,0,0,0,0,0,0,0,0,0,0,0,0,0,0,0,0,0,0,0,0,0,0,0,0,0,0,0,0,0,0,0,0,0,0,0,0,0,0,0,0,0,0,0,0,0,0,0,0,0,0,0,0,0,0,0,0,0,-3.9101,-3.9101,0,-3.9138,-3.9139,-3.9139,-3.9032,-3.9029,-3.9026,-3.9023,-3.9063,-3.9067,-3.9071,0,0,0,0,0,0,0,0,0,0,0,0,0,-3.8939,-3.8942,-3.9101,-3.9101,-3.9102,-3.9138,-3.9139,-3.9139,-3.9033,-3.9029,-3.9025,-3.9021,-3.9061,-3.9066,-3.9071,0,0,0,0,0,0,0,0,0,0,0,0,0,-3.8996,-3.8943,-3.9101,-3.9053,-3.9049,-3.9138,-3.9139,-3.914,-3.9034,-3.9029,-3.9024,-3.9019,-3.906,-3.9066,-3.9072,-3.9209,0,0,-3.9091,-3.9093,0,0,0,0,0,0,0,0,-3.8993,-3.9002,-3.906,-3.9057,-3.9052,-3.9076,-3.9096,-3.9163,-3.9035,-3.904,-3.9023,-3.9017,-3.9071,-3.9076,-3.9094,-3.9211,-3.9212,-3.9091,-3.9095,-3.9098,-3.9099,0,0,0,0,0,0,0,-3.8989,-3.9,-3.9116,-3.9061,-3.9056,-3.903,-3.9033,-3.9108,-3.9083,-3.9039,-3.9031,-3.9037,-3.9068,-3.9088,-3.9094,-3.9213,-3.9091,-3.9096,-3.91,-3.9103,-3.9445,-3.945,0,0,0,0,0,0,-3.8991,-3.8997,-3.9115,-3.9117,-3.901,-3.9037,-3.904,-3.9073,-3.9082,-3.9078,-3.9041,-3.9032,-3.908,-3.9087,-3.9095,-3.9256,-3.9098,-3.9103,-3.9107,-3.9439,-3.9446,-3.9452,0,0,0,0,0,0,-3.8988,-3.9003,-3.9113,-3.9055,-3.9067,-3.9045,-3.9083,-3.9077,-3.9096,-3.9083,-3.9078,-3.9067,-3.9076,-3.9086,-3.9181,-3.9256,-3.9106,-3.9112,-3.9433,-3.9441,-3.9449,-3.958,0,0,0,0,0,0,-3.8984,-3.9002,-3.9054,-3.9057,-3.9071,-3.9199,-3.9088,-3.9081,-3.9107,-3.9096,-3.9106,-3.9103,-3.9073,-3.9173,-3.9188,-3.9262,-3.9117,-3.9426,-3.9437,-3.9446,-3.9569,-3.9592,-3.9611,0,0,0,0,0,-3.8978,-3.909,-3.9057,-3.9072,-3.9135,-3.9203,-3.9211,-3.9175,-3.9114,-3.9166,-3.9157,-3.9102,-3.9246,-3.9183,-3.9199,-3.9277,-3.9421,-3.9434,-3.9445,-3.956,-3.9587,-3.9611,0,0,0,0,0,0,-3.9096,-3.9089,-3.9053,-3.9168,-3.9187,-3.9185,-3.9249,-3.9205,-3.9242,-3.923,-3.9183,-3.9186,-3.929,-3.9293,-3.9223,-3.941,-3.9323,-3.9339,-3.9405,-3.9431,-3.9451,-3.9449,-3.9122,0,0,0,0,0,-3.9135,-3.9191,-3.9182,-3.9285,-3.9296,-3.9272,-3.93,-3.9271,-3.9288,-3.9296,-3.9294,-3.9314,-3.9364,-3.9397,-3.9442,-3.9569,-3.957,-3.963,-3.9651,-3.9668,-3.9683,-3.975,-3.9777,-3.9491,-3.9491,-3.9491,0,0,-3.9217,-3.922,-3.9259,-3.9309,-3.932,-3.9379,-3.9279,-3.9346,-3.939,-3.9306,-3.9396,-3.9396,-3.9415,-3.9527,-3.9576,-3.9532,-3.9762,-3.9684,-3.9698,-3.9703,-3.9766,-3.9793,-3.9817,-3.95,-3.9498,-3.9497,0,0,-3.9397,-3.9405,-3.9491,-3.9505,-3.9523,-3.9505,-3.9527,-3.9531,-3.9528,-3.9617,-3.9556,-3.9607,-3.9693,-3.9709,-3.9729,-3.9915,-3.9866,-3.9931,-4.0041,-4.0108,-4.013,-4.015,-4.0217,-4.0241,-3.9945,-3.9946,-3.9946,0,-3.9497,-3.9583,-3.9542,-3.9613,-3.9637,-3.9564,-3.9651,-3.9666,-3.9699,-3.9717,-3.9667,-3.9774,-3.9782,-3.9896,-3.9942,-3.996,-3.9983,-3.993,-4.013,-4.015,-4.0168,-4.0231,-4.0256,-3.9954,-3.9953,-3.9952,-3.9951,0,-3.9705,-3.9766,-3.9834,-3.9867,-3.9898,-3.9978,-3.9948,-3.9985,-3.9953,-3.9942,-4.0034,-4.004,-4.0085,-4.011,-4.0079,-4.0221,-4.0193,-4.0138,-4.005,-4.0203,-4.0262,-4.0286,-3.9965,-3.9962,-3.996,-3.9958,0,0,-3.996,-3.9968,-3.9994,-4.0008,-4.0023,-4.0069,-4.0145,-4.0189,-4.0222,-4.0247,-4.031,-4.0384,-4.0333,-4.0356,-4.0326,-4.0385,-4.0532,-4.0322,-4.0321,-4.0361,-4.0689,-4.073,-4.0759,-4.05,-4.0504,-4.0508,-4.0687,0,-4.0137,-4.0267,-4.0232,-4.0362,-4.0418,-4.0349,-4.0416,-4.0432,-4.0424,-4.047,-4.046,-4.0514,-4.0443,-4.0456,-4.051,-4.0503,-4.0597,-4.0489,-4.0558,-4.0561,-4.0556,-4.079,-4.0834,-4.1003,-4.071,-4.0714,-4.0716,0,-4.0361,-4.0394,-4.053,-4.0535,-4.0557,-4.0618,-4.0655,-4.07,-4.0718,-4.0707,-4.0733,-4.0692,-4.0767,-4.0679,-4.0782,-4.0709,-4.0735,-4.0736,-4.0742,-4.0747,-4.0648,-4.0801,-4.1056,-4.1082,-4.0752,-4.0749,-4.0747,0,-4.0533,-4.0612,-4.0703,-4.0717,-4.0726,-4.077,-4.0776,-4.0789,-4.0817,-4.085,-4.0868,-4.091,-4.0932,-4.0966,-4.0937,-4.0875,-4.1045,-4.0954,-4.1039,-4.104,-4.1078,-4.1076,-4.1341,-4.1095,-4.1095,-4.1094,-4.1094,0,-4.0735,-4.082,-4.0781,-4.0837,-4.0931,-4.089,-4.0985,-4.0983,-4.0995,-4.105,-4.0993,-4.1046,-4.1005,-4.1054,-4.1032,-4.1122,-4.1132,-4.1126,-4.112,-4.1132,-4.1132,-4.1148,-4.1136,-4.1101,-4.11,-4.1098,-4.1097,0,-4.0943,-4.092,-4.1015,-4.1016,-4.1018,-4.1088,-4.1088,-4.114,-4.1127,-4.1198,-4.1212,-4.1192,-4.1248,-4.1222,-4.128,-4.1265,-4.1381,-4.1358,-4.1375,-4.1369,-4.1455,-4.1448,-4.1739,-4.1776,-4.1507,-4.151,-4.1512,0,-4.1073,-4.1138,-4.1145,-4.1178,-4.1188,-4.1241,-4.127,-4.1232,-4.1265,-4.129,-4.1339,-4.1389,-4.1428,-4.1519,-4.1511,-4.1555,-4.1533,-4.1632,-4.1539,-4.1549,-4.1535,-4.1531,-4.1537,-4.1651,-4.1654,-4.1657,-4.1659,0,-4.1307,-4.1292,-4.1336,-4.1376,-4.1412,-4.1442,-4.1466,-4.1497,-4.146,-4.1499,-4.1555,-4.1585,-4.1644,-4.1695,-4.1734,-4.174,-4.1694,-4.1688,-4.171,-4.1723,-4.173,-4.1727,-4.1426,-4.1681,-4.1679,-4.1678,-4.1676,-4.1675,-4.148,-4.1534,-4.1548,-4.1599,-4.1613,-4.1638,-4.1687,-4.1681,-4.1726,-4.1771,-4.1746,-4.1812,-4.1828,-4.1875,-4.1888,-4.1939,-4.1899,-4.1931,-4.1939,-4.1948,-4.1959,-4.1722,-4.1946,-4.1945,-4.1944,-4.1944,-4.1943,0,-4.1711,-4.1716,-4.1763,-4.18,-4.184,-4.1792,-4.1818,-4.1854,-4.1912,-4.1931,-4.197,-4.2034,-4.2083,-4.2079,-4.2124,-4.2165,-4.2145,-4.2179,-4.2175,-4.2177,-4.1992,-4.1968,-4.2194,-4.2194,-4.2194,-4.2194,-4.2194,-4.2194,-4.1835,-4.1924,-4.1912,-4.2008,-4.2012,-4.2076,-4.2094,-4.2117,-4.2132,-4.2206,-4.2246,-4.2243,-4.2252,-4.2298,-4.2341,-4.2338,-4.2357,-4.2399,-4.2388,-4.2215,-4.219,-4.2167,-4.2144,-4.2403,-4.2404,-4.2569,-4.2571,-4.2572]},{"header":{"parameterUnit":"m.s-1","parameterCategory":1,"la1":30.2991,"la2":30.254,"lo1":-89.0895,"lo2":-89.0444,"dy":0.0017,"dx":0.0017,"nx":28,"ny":28,"refTime":"2024-02-13T09:00:00:Z","depth":0,"parameterNumber":3,"parameterNumberName":"V-component_of_WINDS"},"data":[0,0,0,0,0,0,0,0,0,0,0,0,0,0,0,0,0,0,0,0,0,0,0,0,0,0,0,0,0,0,0,0,0,0,0,0,0,0,0,0,0,0,0,0,0,0,0,0,0,0,0,0,0,0,0,0,0,0,-1.9452,-1.9452,0,-1.9453,-1.9453,-1.9453,-1.9415,-1.9414,-1.9413,-1.9412,-1.9414,-1.9415,-1.9416,0,0,0,0,0,0,0,0,0,0,0,0,0,-1.9416,-1.9417,-1.9452,-1.9452,-1.9452,-1.9453,-1.9453,-1.9453,-1.9415,-1.9414,-1.9413,-1.9412,-1.9413,-1.9415,-1.9416,0,0,0,0,0,0,0,0,0,0,0,0,0,-1.9426,-1.9417,-1.9452,-1.9433,-1.9432,-1.9453,-1.9453,-1.9453,-1.9416,-1.9414,-1.9413,-1.9411,-1.9413,-1.9415,-1.9416,-1.9456,0,0,-1.9421,-1.9421,0,0,0,0,0,0,0,0,-1.9425,-1.9427,-1.9436,-1.9435,-1.9433,-1.9432,-1.9441,-1.9454,-1.9416,-1.9422,-1.9412,-1.941,-1.9421,-1.9422,-1.9426,-1.9456,-1.9456,-1.9421,-1.9422,-1.9422,-1.9423,0,0,0,0,0,0,0,-1.9425,-1.9427,-1.9452,-1.9436,-1.9434,-1.9424,-1.9424,-1.9443,-1.943,-1.9421,-1.9418,-1.9419,-1.942,-1.9424,-1.9425,-1.9456,-1.9421,-1.9422,-1.9423,-1.9423,-1.9518,-1.9519,0,0,0,0,0,0,-1.9427,-1.9427,-1.9452,-1.9452,-1.9425,-1.9426,-1.9426,-1.9434,-1.943,-1.9428,-1.942,-1.9417,-1.9422,-1.9424,-1.9425,-1.9471,-1.9422,-1.9424,-1.9424,-1.9516,-1.9518,-1.952,0,0,0,0,0,0,-1.9426,-1.9429,-1.9452,-1.9439,-1.9441,-1.9429,-1.9438,-1.9435,-1.9439,-1.9429,-1.9427,-1.9427,-1.9421,-1.9423,-1.9448,-1.947,-1.9424,-1.9426,-1.9514,-1.9517,-1.9519,-1.9563,0,0,0,0,0,0,-1.9425,-1.9429,-1.9444,-1.9439,-1.9442,-1.9476,-1.9439,-1.9436,-1.9442,-1.9438,-1.9435,-1.9433,-1.942,-1.9446,-1.945,-1.9471,-1.9427,-1.9512,-1.9515,-1.9518,-1.9559,-1.9566,-1.9572,0,0,0,0,0,-1.9424,-1.9457,-1.9445,-1.9449,-1.9461,-1.9477,-1.9478,-1.9463,-1.9444,-1.9459,-1.9452,-1.9433,-1.9467,-1.9449,-1.9453,-1.9475,-1.9511,-1.9514,-1.9518,-1.9556,-1.9565,-1.9572,0,0,0,0,0,0,-1.9465,-1.9456,-1.9443,-1.9476,-1.9477,-1.947,-1.9489,-1.9473,-1.948,-1.9476,-1.9457,-1.9457,-1.9485,-1.9482,-1.9462,-1.9513,-1.9486,-1.949,-1.9513,-1.9522,-1.9528,-1.9528,-1.9428,0,0,0,0,0,-1.9478,-1.9492,-1.9483,-1.9513,-1.9514,-1.9502,-1.9508,-1.9496,-1.9497,-1.9498,-1.9493,-1.9495,-1.9506,-1.9514,-1.9523,-1.9559,-1.9557,-1.9576,-1.9582,-1.9588,-1.9592,-1.961,-1.9618,-1.9532,-1.9532,-1.9532,0,0,-1.9505,-1.9502,-1.9512,-1.9521,-1.9521,-1.9536,-1.9503,-1.952,-1.953,-1.95,-1.9523,-1.952,-1.9521,-1.9551,-1.9564,-1.955,-1.9615,-1.9593,-1.9597,-1.9598,-1.9614,-1.9622,-1.9629,-1.9534,-1.9534,-1.9533,0,0,-1.9561,-1.9561,-1.9584,-1.9585,-1.9585,-1.9576,-1.9582,-1.9577,-1.9574,-1.9597,-1.9574,-1.9586,-1.9606,-1.9607,-1.961,-1.9666,-1.9648,-1.967,-1.9704,-1.9721,-1.9728,-1.9734,-1.9753,-1.976,-1.9674,-1.9674,-1.9674,0,-1.9595,-1.9616,-1.9599,-1.9617,-1.9622,-1.9595,-1.9619,-1.962,-1.9623,-1.9627,-1.9611,-1.9635,-1.9633,-1.9663,-1.9676,-1.968,-1.9685,-1.967,-1.9728,-1.9734,-1.9739,-1.9757,-1.9765,-1.9676,-1.9676,-1.9676,-1.9676,0,-1.9656,-1.9671,-1.9691,-1.9694,-1.9701,-1.9722,-1.9708,-1.9716,-1.9704,-1.9696,-1.9719,-1.9717,-1.9725,-1.9731,-1.9719,-1.9759,-1.975,-1.9732,-1.9704,-1.975,-1.9767,-1.9774,-1.968,-1.9679,-1.9678,-1.9678,0,0,-1.9739,-1.9732,-1.9739,-1.974,-1.9738,-1.9749,-1.9769,-1.9776,-1.9784,-1.9787,-1.9803,-1.9819,-1.9802,-1.9806,-1.9794,-1.9809,-1.9852,-1.9789,-1.9788,-1.98,-1.9895,-1.9908,-1.9916,-1.9841,-1.9842,-1.9843,-1.9894,0,-1.9793,-1.9826,-1.9811,-1.9845,-1.9858,-1.9833,-1.9849,-1.985,-1.9843,-1.9853,-1.9846,-1.9858,-1.9835,-1.9837,-1.9851,-1.9844,-1.9871,-1.984,-1.9854,-1.9855,-1.9855,-1.9925,-1.9939,-1.9988,-1.9901,-1.9902,-1.9903,0,-1.986,-1.9866,-1.9901,-1.9896,-1.99,-1.9916,-1.9921,-1.9931,-1.9931,-1.9925,-1.9929,-1.9913,-1.9931,-1.9904,-1.9928,-1.9908,-1.9913,-1.991,-1.9912,-1.9912,-1.9881,-1.9927,-2.0004,-2.0011,-1.9913,-1.9912,-1.9911,0,-1.9916,-1.9932,-1.9955,-1.9957,-1.9951,-1.9962,-1.996,-1.9958,-1.9964,-1.9968,-1.9972,-1.9979,-1.9982,-1.9988,-1.9974,-1.9956,-2.0001,-1.9972,-1.9996,-1.9996,-2.0006,-2.0006,-2.0084,-2.0011,-2.0011,-2.001,-2.001,0,-1.9977,-2.0,-1.998,-1.9994,-2.0018,-2.0001,-2.0025,-2.002,-2.0019,-2.0031,-2.001,-2.0022,-2.0003,-2.0014,-2.0003,-2.0025,-2.0027,-2.0022,-2.0019,-2.0024,-2.0025,-2.0027,-2.0023,-2.0012,-2.0012,-2.0012,-2.0011,0,-2.0044,-2.0031,-2.0054,-2.0047,-2.0045,-2.0064,-2.0057,-2.0069,-2.0061,-2.0077,-2.008,-2.0068,-2.0079,-2.0065,-2.0076,-2.0068,-2.0097,-2.009,-2.0098,-2.0095,-2.0119,-2.0117,-2.0202,-2.0211,-2.0132,-2.0133,-2.0133,0,-2.0083,-2.01,-2.0094,-2.0101,-2.01,-2.0111,-2.0116,-2.0099,-2.0105,-2.0105,-2.0118,-2.0127,-2.0133,-2.0152,-2.0144,-2.0151,-2.0143,-2.0172,-2.0144,-2.0148,-2.0142,-2.0141,-2.0143,-2.0178,-2.0179,-2.0179,-2.018,0,-2.0155,-2.0148,-2.0156,-2.0161,-2.0168,-2.0172,-2.0174,-2.0181,-2.0163,-2.0171,-2.0181,-2.0186,-2.0196,-2.0205,-2.021,-2.0208,-2.0191,-2.0189,-2.0195,-2.0199,-2.0203,-2.0201,-2.0112,-2.0187,-2.0186,-2.0186,-2.0185,-2.0185,-2.0209,-2.0222,-2.0219,-2.0229,-2.0228,-2.0231,-2.0242,-2.0235,-2.0243,-2.025,-2.0239,-2.0252,-2.0251,-2.0256,-2.0255,-2.0265,-2.0253,-2.0262,-2.0264,-2.0266,-2.0269,-2.0202,-2.0266,-2.0266,-2.0266,-2.0266,-2.0266,0,-2.0278,-2.0275,-2.0284,-2.0287,-2.0294,-2.0277,-2.0279,-2.0286,-2.0298,-2.0298,-2.0304,-2.0316,-2.0325,-2.0317,-2.0324,-2.0333,-2.0326,-2.0336,-2.0335,-2.0334,-2.028,-2.0274,-2.0342,-2.0342,-2.0342,-2.0342,-2.0342,-2.0342,-2.0315,-2.0336,-2.0329,-2.0349,-2.0346,-2.0358,-2.036,-2.0362,-2.0362,-2.0376,-2.0383,-2.0378,-2.0374,-2.0381,-2.0388,-2.0385,-2.0388,-2.0401,-2.0396,-2.0346,-2.0338,-2.0331,-2.0325,-2.0402,-2.0402,-2.0449,-2.0449,-2.045]}]]